Location: Strawberry
(45.6646°N, 111.9596°W)
Time: 18:28:25
(UTC+00:00)

AO-27 - Pass Details

Date: 16 December 2022
Orbit: 784 x 798 km, 98.9° (Epoch: 05 February)

Event Time Altitude Azimuth Distance (km) Brightness Sun altitude
Exits shadow 03:26:36 10° 335° (NNW) 2,348 10.4 -37.7°
Drops below altitude 10° 03:26:37 10° 335° (NNW) 2,357 10.4 -37.7°
Sets 03:29:06 0° 341° (NNW) 3,315 11.1 -38.2°
